Location: Bryzozowice
(50.3667°N, 18.9667°E)
Time: 12:14:33
(UTC+00:00)

Cosmos 2123 Rocket - Pass Details

Date: 24 January 2020
Orbit: 961 x 992 km, 82.9° (Epoch: 16 February)

Event Time Altitude Azimuth Distance (km) Brightness Sun altitude
Rises 18:13:34 0° 351° (N) 3,717 7.2 -26.9°
Reaches altitude 10° 18:16:07 10° 353° (N) 2,762 6.5 -27.3°
Enters shadow 18:22:06 73° 46° (NE) 1,034 3.9 -28.3°
